Amsterdam, Netherlands

5:05 AM CEST on September 30, 2016 (GMT +0200)
Schiphol

Weather History for EHAM - January, 2013

Change the Weather History Date:

Tuesday, January 8, 2013

  Actual Average Record
Temperature  
Mean Temperature 46 °F -  
Max Temperature 48 °F 41 °F 53 °F (1998)
Min Temperature 43 °F 33 °F 19 °F (1997)
Degree Days  
Heating Degree Days 20    
Moisture  
Dew Point 44 °F    
Average Humidity 93    
Maximum Humidity 100    
Minimum Humidity 86    
Precipitation  
Precipitation 0.02 in - - ()
Sea Level Pressure  
Sea Level Pressure 30.23 in    
Wind  
Wind Speed 12 mph ()    
Max Wind Speed 15 mph    
Max Gust Speed -    
Visibility 3.8 miles    
Events Rain    
Averages and records for this station are not official NWS values.
T = Trace of Precipitation, MM = Missing Value Source: Averaged Metar Reports

Daily Weather History Graph

Daily Weather History Graph

Search for Another Location

Airport or City:

Trip Planner

Search our weather history database for the weather conditions in past years. The results will help you decide how hot, cold, wet, or windy it might be!

Date:

Astronomy

Jan. 08, 2013 Rise Set
Actual Time 8:48 AM CET 4:47 PM CET
Civil Twilight 8:07 AM CET 5:27 PM CET
Nautical Twilight 7:24 AM CET 6:10 PM CET
Astronomical Twilight 6:43 AM CET 6:52 PM CET
Moon 4:59 AM CET (1/8) 1:37 PM CET (1/8)
Length of Visible Light 9h 19m
Length of Day
7h 59m
Waning Crescent, 16% of the Moon is Illuminated
Jan 8
Waning Crescent
Jan 11
New
Jan 19
First Quarter
Jan 27
Full
Feb 3
Last Quarter

Hourly Weather History & Observations

Time (CET) Temp. Windchill Dew Point Humidity Pressure Visibility Wind Dir Wind Speed Gust Speed Precip Events Conditions
12:25 AM 42.8 °F 35.8 °F 42.8 °F 100% 30.27 in 2.2 mi SW 13.8 mph - N/A   Light Drizzle
12:55 AM 42.8 °F 35.8 °F 42.8 °F 100% 30.27 in 2.5 mi SW 13.8 mph - N/A   Light Drizzle
1:00 AM 43 °F - 42 °F 95% 30.27 in 2 mi SW 13.4 mph - -   Mist
1:25 AM 42.8 °F 35.8 °F 42.8 °F 100% 30.24 in 2.8 mi SW 13.8 mph - N/A   Overcast
1:55 AM 42.8 °F 35.8 °F 42.8 °F 100% 30.24 in 3.1 mi SSW 13.8 mph - N/A   Overcast
2:25 AM 42.8 °F 36.2 °F 42.8 °F 100% 30.24 in 3.1 mi SSW 12.7 mph - N/A   Overcast
2:55 AM 42.8 °F 36.2 °F 42.8 °F 100% 30.24 in 3.1 mi SSW 12.7 mph - N/A   Overcast
3:25 AM 42.8 °F 36.2 °F 42.8 °F 100% 30.24 in 3.7 mi SSW 12.7 mph - N/A   Mostly Cloudy
3:55 AM 42.8 °F 36.2 °F 41.0 °F 93% 30.24 in 3.7 mi SSW 12.7 mph - N/A   Overcast
4:00 AM 43 °F - 42 °F 93% 30.26 in 3 mi SSW 13.4 mph - -   Mist
4:25 AM 42.8 °F 36.6 °F 42.8 °F 100% 30.24 in 3.7 mi SSW 11.5 mph - N/A   Overcast
4:55 AM 42.8 °F 36.6 °F 42.8 °F 100% 30.24 in 3.7 mi SSW 11.5 mph - N/A   Overcast
5:25 AM 42.8 °F 36.6 °F 42.8 °F 100% 30.24 in 3.7 mi SSW 11.5 mph - N/A   Overcast
5:55 AM 44.6 °F 38.8 °F 42.8 °F 93% 30.21 in 3.7 mi SW 11.5 mph - N/A   Mostly Cloudy
6:25 AM 44.6 °F 39.2 °F 42.8 °F 93% 30.21 in 3.7 mi SW 10.4 mph - N/A   Overcast
6:55 AM 44.6 °F 38.8 °F 42.8 °F 93% 30.21 in 3.7 mi SW 11.5 mph - N/A   Overcast
7:00 AM 44 °F - 43 °F 93% 30.24 in 3 mi SSW 11.2 mph - -   Mist
7:25 AM 44.6 °F 38.8 °F 42.8 °F 93% 30.21 in 3.7 mi SSW 11.5 mph - N/A   Mostly Cloudy
7:55 AM 44.6 °F 39.2 °F 42.8 °F 93% 30.21 in 3.7 mi SSW 10.4 mph - N/A   Overcast
8:25 AM 44.6 °F 39.2 °F 42.8 °F 93% 30.21 in 3.7 mi SSW 10.4 mph - N/A   Overcast
8:55 AM 44.6 °F 38.8 °F 44.6 °F 100% 30.21 in 3.7 mi SSW 11.5 mph - N/A   Overcast
9:25 AM 44.6 °F 39.2 °F 42.8 °F 93% 30.24 in 3.1 mi SSW 10.4 mph - N/A   Overcast
9:55 AM 44.6 °F 38.8 °F 42.8 °F 93% 30.24 in 3.1 mi SSW 11.5 mph - N/A   Mostly Cloudy
10:00 AM 45 °F - 44 °F 93% 30.25 in 3 mi SSW 11.2 mph - -   Mist
10:25 AM 46.4 °F 41.1 °F 44.6 °F 93% 30.24 in 3.1 mi SW 11.5 mph - N/A   Overcast
10:55 AM 46.4 °F 41.1 °F 44.6 °F 93% 30.24 in 3.7 mi SW 11.5 mph - N/A   Overcast
11:25 AM 46.4 °F 41.5 °F 44.6 °F 93% 30.24 in 4.3 mi SW 10.4 mph - N/A   Mostly Cloudy
11:55 AM 48.2 °F - 44.6 °F 87% 30.24 in 5.0 mi SW 10.4 mph - N/A   Mostly Cloudy
12:25 PM 48.2 °F - 46.4 °F 93% 30.24 in 6.2 mi SW 11.5 mph - N/A   Mostly Cloudy
12:55 PM 48.2 °F - 44.6 °F 87% 30.24 in 5.6 mi WSW 13.8 mph - N/A   Mostly Cloudy
1:00 PM 48 °F - 45 °F 86% 30.25 in 7 mi SW 13.4 mph - -   Partly Cloudy
1:25 PM 48.2 °F - 44.6 °F 87% 30.24 in 5.6 mi WSW 13.8 mph - N/A   Mostly Cloudy
1:55 PM 48.2 °F - 44.6 °F 87% 30.21 in 5.6 mi WSW 15.0 mph - N/A   Mostly Cloudy
2:25 PM 48.2 °F - 44.6 °F 87% 30.21 in 5.6 mi WSW 13.8 mph - N/A   Mostly Cloudy
2:55 PM 48.2 °F - 44.6 °F 87% 30.21 in 6.2 mi WSW 13.8 mph - N/A   Mostly Cloudy
3:25 PM 48.2 °F - 44.6 °F 87% 30.21 in 6.2 mi WSW 13.8 mph - N/A   Overcast
3:55 PM 48.2 °F - 44.6 °F 87% 30.21 in 6.2 mi WSW 15.0 mph - N/A   Overcast
4:00 PM 48 °F - 45 °F 86% 30.23 in 6 mi WSW 13.4 mph - -   Overcast
4:25 PM 48.2 °F - 46.4 °F 93% 30.21 in 4.3 mi WSW 13.8 mph - N/A   Overcast
4:55 PM 48.2 °F - 44.6 °F 87% 30.21 in 5.0 mi WSW 15.0 mph - N/A   Overcast
5:25 PM 48.2 °F - 44.6 °F 87% 30.21 in 5.6 mi WSW 13.8 mph - N/A   Overcast
5:55 PM 48.2 °F - 44.6 °F 87% 30.21 in 5.0 mi WSW 12.7 mph - N/A   Mostly Cloudy
6:25 PM 48.2 °F - 44.6 °F 87% 30.21 in 5.6 mi WSW 11.5 mph - N/A   Mostly Cloudy
6:55 PM 48.2 °F - 44.6 °F 87% 30.21 in 5.6 mi WSW 13.8 mph - N/A   Mostly Cloudy
7:00 PM 47 °F - 45 °F 90% 30.24 in 4 mi WSW 13.4 mph - -   Mist
7:25 PM 48.2 °F - 44.6 °F 87% 30.21 in 3.7 mi WSW 12.7 mph - N/A   Mostly Cloudy
7:55 PM 46.4 °F 40.4 °F 44.6 °F 93% 30.21 in 3.1 mi SW 13.8 mph - N/A   Mostly Cloudy
8:25 PM 46.4 °F 40.7 °F 44.6 °F 93% 30.21 in 2.8 mi SW 12.7 mph - N/A   Overcast
8:55 PM 46.4 °F 40.7 °F 46.4 °F 100% 30.21 in 1.6 mi SW 12.7 mph - N/A   Light Drizzle
9:25 PM 46.4 °F 41.1 °F 46.4 °F 100% 30.21 in 1.4 mi SW 11.5 mph - N/A   Light Drizzle
9:55 PM 46.4 °F 41.1 °F 44.6 °F 93% 30.21 in 1.4 mi SSW 11.5 mph - N/A   Light Drizzle
10:00 PM 46 °F - 45 °F 95% 30.23 in 1 mi SSW 11.2 mph - - Rain Drizzle
10:25 PM 46.4 °F 41.5 °F 44.6 °F 93% 30.21 in 3.1 mi SSW 10.4 mph - N/A   Overcast
10:55 PM 46.4 °F 41.1 °F 44.6 °F 93% 30.18 in 3.1 mi SSW 11.5 mph - N/A   Overcast
11:25 PM 46.4 °F 41.1 °F 44.6 °F 93% 30.18 in 1.6 mi SSW 11.5 mph - N/A   Light Drizzle
11:55 PM 44.6 °F 39.2 °F 44.6 °F 100% 30.18 in 1.3 mi SSW 10.4 mph - N/A   Light Drizzle